Weather History for Smyrna, TN

Change the Weather History Date:

Tuesday, September 24, 2013

  Actual Average Record
Temperature  
Mean Temperature 68 °F -  
Max Temperature 81 °F 76 °F 97 °F (2007)
Min Temperature 55 °F 57 °F 41 °F (2012)
Cooling Degree Days 3    
Growing Degree Days 18 (Base 50)    
Moisture  
Dew Point 59 °F    
Average Humidity 93    
Maximum Humidity 100    
Minimum Humidity 54    
Precipitation  
Precipitation 0.07 in - - ()
Sea Level Pressure  
Sea Level Pressure 29.98 in    
Wind  
Wind Speed 1 mph (SSE)    
Max Wind Speed 10 mph    
Max Gust Speed -    
Visibility 4 miles    
Events Fog , Rain    
Averages and records for this station are not official NWS values.
T = Trace of Precipitation, MM = Missing Value Source: NWS Daily Summary

Daily Weather History Graph

Daily Weather History Graph

Search for Another Location

Airport:

Trip Planner

Search our weather history database for the weather conditions in past years. The results will help you decide how hot, cold, wet, or windy it might be!

Date:

Astronomy

Sep. 24, 2013 Rise Set
Actual Time 6:35 AM CDT 6:39 PM CDT
Civil Twilight 6:10 AM CDT 7:05 PM CDT
Nautical Twilight 5:40 AM CDT 7:34 PM CDT
Astronomical Twilight 5:10 AM CDT 8:05 PM CDT
Moon 10:06 PM CDT (9/24) 11:40 AM CDT (9/24)
Length of Visible Light 12h 54m
Length of Day
12h 03m
Waning Gibbous, 73% of the Moon is Illuminated
Sep 24
Waning Gibbous
Sep 26
Last Quarter
Oct 4
New
Oct 11
First Quarter
Oct 18
Full

Hourly Weather History & Observations

Time (CDT) Temp. Heat Index Dew Point Humidity Pressure Visibility Wind Dir Wind Speed Gust Speed Precip Events Conditions
12:20 AM 60.8 °F - 60.8 °F 100% 29.99 in 1.5 mi Calm Calm - N/A   Clear
12:22 AM 60.8 °F - 60.8 °F 100% 29.99 in 1.0 mi Calm Calm - N/A   Clear
12:33 AM 59.0 °F - 59.0 °F 100% 29.99 in 0.5 mi Calm Calm - N/A Fog Fog
12:41 AM 59.0 °F - 59.0 °F 100% 29.99 in 1.0 mi Calm Calm - N/A   Clear
12:43 AM 60.8 °F - 60.8 °F 100% 29.99 in 1.8 mi Calm Calm - N/A   Clear
12:45 AM 60.8 °F - 60.8 °F 100% 29.99 in 3.0 mi Calm Calm - N/A   Clear
12:48 AM 59.0 °F - 59.0 °F 100% 29.99 in 1.5 mi Calm Calm - N/A   Clear
12:56 AM 59.0 °F - 59.0 °F 100% 30.01 in 1.0 mi Calm Calm - N/A   Clear
12:58 AM 57.2 °F - 57.2 °F 100% 29.99 in 2.0 mi Calm Calm - N/A   Clear
1:05 AM 59.0 °F - 59.0 °F 100% 29.99 in 7.0 mi Calm Calm - N/A   Clear
1:56 AM 59.0 °F - 59.0 °F 100% 30.01 in 7.0 mi Calm Calm - N/A   Clear
2:17 AM 57.2 °F - 57.2 °F 100% 29.99 in 1.8 mi Calm Calm - N/A   Clear
2:20 AM 57.2 °F - 57.2 °F 100% 29.99 in 1.0 mi Calm Calm - N/A   Clear
2:28 AM 57.2 °F - 57.2 °F 100% 29.99 in 0.5 mi Calm Calm - N/A Fog Fog
2:38 AM 57.2 °F - 57.2 °F 100% 29.99 in 1.0 mi Calm Calm - N/A   Clear
2:40 AM 57.2 °F - 57.2 °F 100% 29.99 in 1.5 mi Calm Calm - N/A   Clear
2:44 AM 57.2 °F - 57.2 °F 100% 29.99 in 3.0 mi Calm Calm - N/A   Clear
2:56 AM 57.9 °F - 57.9 °F 100% 30.01 in 6.0 mi Calm Calm - N/A   Clear
3:03 AM 57.2 °F - 57.2 °F 100% 29.99 in 1.0 mi Calm Calm - N/A   Clear
3:07 AM 57.2 °F - 57.2 °F 100% 29.99 in 0.5 mi Calm Calm - N/A Fog Fog
3:19 AM 55.4 °F - 55.4 °F 100% 29.99 in 1.0 mi Calm Calm - N/A   Clear
3:25 AM 57.2 °F - 57.2 °F 100% 29.99 in 0.5 mi Calm Calm - N/A Fog Fog
3:35 AM 57.2 °F - 57.2 °F 100% 29.99 in 1.0 mi Calm Calm - N/A   Clear
3:44 AM 57.2 °F - 57.2 °F 100% 29.99 in 1.5 mi Calm Calm - N/A   Clear
3:47 AM 57.2 °F - 57.2 °F 100% 29.99 in 4.0 mi Calm Calm - N/A   Clear
3:56 AM 56.8 °F - 56.8 °F 100% 30.01 in 7.0 mi Calm Calm - N/A   Clear
4:05 AM 57.2 °F - 57.2 °F 100% 29.99 in 1.2 mi Calm Calm - N/A   Clear
4:07 AM 57.2 °F - 57.2 °F 100% 29.99 in 0.8 mi Calm Calm - N/A   Clear
4:14 AM 57.2 °F - 57.2 °F 100% 29.99 in 0.5 mi Calm Calm - N/A Fog Fog
4:19 AM 57.2 °F - 57.2 °F 100% 29.99 in 1.0 mi Calm Calm - N/A   Clear
4:21 AM 57.2 °F - 57.2 °F 100% 29.99 in 2.0 mi Calm Calm - N/A   Clear
4:28 AM 55.4 °F - 55.4 °F 100% 30.00 in 10.0 mi Calm Calm - N/A   Clear
4:42 AM 55.4 °F - 55.4 °F 100% 30.00 in 1.8 mi Calm Calm - N/A   Clear
4:56 AM 55.9 °F - 55.9 °F 100% 30.02 in 5.0 mi Calm Calm - N/A   Clear
5:04 AM 55.4 °F - 55.4 °F 100% 30.00 in 1.8 mi Calm Calm - N/A   Clear
5:14 AM 55.4 °F - 55.4 °F 100% 30.01 in 3.0 mi Calm Calm - N/A   Clear
5:39 AM 55.4 °F - 55.4 °F 100% 30.01 in 1.5 mi Calm Calm - N/A   Clear
5:44 AM 55.4 °F - 55.4 °F 100% 30.01 in 1.0 mi Calm Calm - N/A   Clear
5:49 AM 55.4 °F - 55.4 °F 100% 30.02 in 1.5 mi Calm Calm - N/A   Clear
5:56 AM 55.9 °F - 55.9 °F 100% 30.04 in 0.8 mi Calm Calm - N/A   Clear
6:06 AM 55.4 °F - 55.4 °F 100% 30.02 in 1.2 mi Calm Calm - N/A   Clear
6:10 AM 55.4 °F - 55.4 °F 100% 30.02 in 2.0 mi Calm Calm - N/A   Clear
6:15 AM 55.4 °F - 55.4 °F 100% 30.02 in 1.0 mi Calm Calm - N/A   Clear
6:25 AM 55.4 °F - 55.4 °F 100% 30.02 in 1.5 mi Calm Calm - N/A   Clear
6:27 AM 55.4 °F - 55.4 °F 100% 30.02 in 3.0 mi Calm Calm - N/A   Clear
6:56 AM 55.9 °F - 55.9 °F 100% 30.04 in 10.0 mi Calm Calm - N/A Fog Patches of Fog
7:56 AM 61.0 °F - 61.0 °F 100% 30.04 in 10.0 mi ESE 4.6 mph - N/A   Clear
8:56 AM 68.0 °F - 61.9 °F 81% 30.04 in 10.0 mi SSE 3.5 mph - N/A   Mostly Cloudy
9:56 AM 72.9 °F - 63.0 °F 71% 30.03 in 10.0 mi South 6.9 mph - 0.00 in   Partly Cloudy
10:56 AM 75.9 °F - 63.9 °F 66% 30.01 in 10.0 mi Variable 4.6 mph - N/A   Clear
11:56 AM 77.0 °F - 63.9 °F 64% 29.99 in 10.0 mi SE 8.1 mph - N/A   Scattered Clouds
12:56 PM 79.0 °F - 63.0 °F 58% 29.96 in 10.0 mi SE 8.1 mph - N/A   Scattered Clouds
1:56 PM 81.0 °F 82.5 °F 63.9 °F 56% 29.93 in 10.0 mi South 9.2 mph - N/A   Scattered Clouds
2:56 PM 81.0 °F 82.5 °F 63.9 °F 56% 29.92 in 10.0 mi South 9.2 mph - N/A   Scattered Clouds
3:56 PM 81.0 °F 82.2 °F 63.0 °F 54% 29.90 in 10.0 mi South 10.4 mph - N/A   Clear
4:56 PM 77.9 °F - 63.9 °F 62% 29.91 in 10.0 mi South 8.1 mph - N/A   Clear
5:56 PM 74.8 °F - 64.9 °F 71% 29.90 in 10.0 mi SSE 8.1 mph - N/A   Clear
6:56 PM 72.9 °F - 64.9 °F 76% 29.90 in 10.0 mi SSE 10.4 mph - N/A   Mostly Cloudy
7:56 PM 70.9 °F - 65.8 °F 84% 29.91 in 10.0 mi SE 5.8 mph - 0.00 in   Mostly Cloudy
8:56 PM 70.0 °F - 65.8 °F 87% 29.92 in 10.0 mi SSE 4.6 mph - 0.00 in Rain Light Rain
9:56 PM 68.9 °F - 65.8 °F 90% 29.91 in 10.0 mi East 5.8 mph - 0.00 in   Scattered Clouds
10:27 PM 69.8 °F - 66.2 °F 88% 29.91 in 10.0 mi South 3.5 mph - N/A   Overcast
10:56 PM 68.0 °F - 66.9 °F 96% 29.93 in 5.0 mi SSE 4.6 mph - 0.02 in Rain Rain
11:11 PM 68.0 °F - 66.2 °F 94% 29.90 in 4.0 mi SE 5.8 mph - 0.02 in Rain Light Rain
11:56 PM 65.8 °F - 64.9 °F 97% 29.91 in 10.0 mi SSE 3.5 mph - 0.05 in Rain Light Rain